EN

Hourly Weather Abondant

Today, 14 May, Friday

Time Temperature Precipitation Wind Pressure Humidity
00:00 +5°C° 0 mm 3 mps 742 mmHg 95%
01:00 +5°C° 0 mm 3 mps 742 mmHg 95%
02:00 +5°C° 0 mm 3 mps 742 mmHg 96%
03:00 +7°C° 0 mm 3 mps 742 mmHg 96%
04:00 +7°C° 0.1 mm 3 mps 742 mmHg 96%
05:00 +6°C° 0.1 mm 4 mps 742 mmHg 96%
06:00 +6°C° 0 mm 4 mps 742 mmHg 96%
07:00 +7°C° 0.2 mm 4 mps 743 mmHg 95%
08:00 +8°C° 0.2 mm 4 mps 743 mmHg 94%
09:00 +8°C° 0.2 mm 4 mps 743 mmHg 93%
10:00 +9°C° 0.4 mm 5 mps 743 mmHg 89%
11:00 +10°C° 0.4 mm 5 mps 743 mmHg 86%
12:00 +12°C° 0.4 mm 5 mps 743 mmHg 83%
13:00 +12°C° 0.3 mm 5 mps 743 mmHg 81%
14:00 +13°C° 0.3 mm 5 mps 744 mmHg 79%
15:00 +13°C° 0.3 mm 5 mps 744 mmHg 77%
16:00 +12°C° 0.3 mm 4 mps 744 mmHg 79%
17:00 +12°C° 0.3 mm 3 mps 744 mmHg 82%
18:00 +11°C° 0.3 mm 3 mps 744 mmHg 84%
19:00 +10°C° 0 mm 2 mps 744 mmHg 87%
20:00 +9°C° 0 mm 2 mps 744 mmHg 89%
21:00 +8°C° 0 mm 2 mps 744 mmHg 91%
22:00 +8°C° 0 mm 3 mps 744 mmHg 93%
23:00 +7°C° 0 mm 4 mps 744 mmHg 94%

Tomorrow, 15 May, Saturday

Time Temperature Precipitation Wind Pressure Humidity
00:00 +7°C° 0 mm 5 mps 743 mmHg 95%
01:00 +7°C° 0 mm 4 mps 743 mmHg 95%
02:00 +6°C° 0 mm 4 mps 742 mmHg 95%
03:00 +6°C° 0 mm 4 mps 742 mmHg 95%
04:00 +6°C° 0.7 mm 4 mps 741 mmHg 95%
05:00 +6°C° 0.7 mm 5 mps 741 mmHg 96%
06:00 +5°C° 0.7 mm 6 mps 740 mmHg 96%
07:00 +7°C° 0.1 mm 6 mps 740 mmHg 95%
08:00 +8°C° 0.1 mm 6 mps 739 mmHg 93%
09:00 +10°C° 0.1 mm 5 mps 739 mmHg 92%
10:00 +11°C° 0.3 mm 6 mps 739 mmHg 84%
11:00 +12°C° 0.3 mm 7 mps 739 mmHg 75%
12:00 +13°C° 0.3 mm 8 mps 740 mmHg 67%
13:00 +14°C° 0.6 mm 7 mps 740 mmHg 72%
14:00 +14°C° 0.6 mm 7 mps 740 mmHg 76%
15:00 +12°C° 0.6 mm 7 mps 740 mmHg 80%
16:00 +13°C° 0.5 mm 6 mps 740 mmHg 82%
17:00 +11°C° 0.5 mm 6 mps 740 mmHg 83%
18:00 +12°C° 0.5 mm 5 mps 740 mmHg 85%
19:00 +10°C° 0.2 mm 4 mps 741 mmHg 88%
20:00 +8°C° 0.2 mm 4 mps 741 mmHg 91%
21:00 +7°C° 0.2 mm 4 mps 741 mmHg 94%
22:00 +7°C° 0.1 mm 4 mps 741 mmHg 95%
23:00 +7°C° 0.1 mm 5 mps 741 mmHg 95%

Day after tomorrow, 16 May, Sunday

Time Temperature Precipitation Wind Pressure Humidity
00:00 +7°C° 0.1 mm 5 mps 741 mmHg 96%
01:00 +7°C° 0.2 mm 5 mps 741 mmHg 95%
02:00 +8°C° 0.2 mm 5 mps 741 mmHg 94%
03:00 +8°C° 0.2 mm 5 mps 740 mmHg 93%
04:00 +8°C° 0 mm 5 mps 740 mmHg 92%
05:00 +8°C° 0 mm 5 mps 740 mmHg 91%
06:00 +8°C° 0 mm 5 mps 740 mmHg 90%
07:00 +9°C° 0 mm 6 mps 740 mmHg 83%
08:00 +11°C° 0 mm 6 mps 740 mmHg 76%
09:00 +12°C° 0 mm 7 mps 740 mmHg 69%
10:00 +12°C° 0.2 mm 7 mps 740 mmHg 71%
11:00 +12°C° 0.2 mm 7 mps 740 mmHg 72%
12:00 +14°C° 0.2 mm 7 mps 740 mmHg 74%
13:00 +14°C° 0.6 mm 7 mps 740 mmHg 77%
14:00 +13°C° 0.6 mm 8 mps 740 mmHg 81%
15:00 +13°C° 0.6 mm 8 mps 740 mmHg 84%
16:00 +12°C° 0.6 mm 8 mps 740 mmHg 85%
17:00 +11°C° 0.6 mm 7 mps 740 mmHg 86%
18:00 +11°C° 0.6 mm 7 mps 740 mmHg 88%
19:00 +10°C° 0.4 mm 7 mps 740 mmHg 89%
20:00 +9°C° 0.4 mm 7 mps 741 mmHg 91%
21:00 +8°C° 0.4 mm 7 mps 741 mmHg 93%
22:00 +8°C° 0.1 mm 7 mps 741 mmHg 92%
23:00 +8°C° 0.1 mm 7 mps 741 mmHg 92%

17 May, Monday

Time Temperature Precipitation Wind Pressure Humidity
00:00 +7°C° 0.1 mm 8 mps 741 mmHg 91%
01:00 +8°C° 0 mm 7 mps 741 mmHg 90%
02:00 +8°C° 0 mm 7 mps 741 mmHg 89%
03:00 +8°C° 0 mm 7 mps 741 mmHg 89%
04:00 +8°C° 0 mm 7 mps 742 mmHg 89%
05:00 +8°C° 0 mm 7 mps 742 mmHg 89%
06:00 +8°C° 0 mm 7 mps 742 mmHg 89%
07:00 +9°C° 0 mm 7 mps 742 mmHg 85%
08:00 +10°C° 0 mm 7 mps 743 mmHg 81%
09:00 +10°C° 0 mm 8 mps 743 mmHg 78%
10:00 +11°C° 0.2 mm 8 mps 743 mmHg 77%
11:00 +11°C° 0.2 mm 7 mps 743 mmHg 76%
12:00 +12°C° 0.2 mm 7 mps 744 mmHg 76%
13:00 +12°C° 0.6 mm 7 mps 744 mmHg 78%
14:00 +12°C° 0.6 mm 7 mps 744 mmHg 80%
15:00 +14°C° 0.6 mm 7 mps 744 mmHg 82%
16:00 +12°C° 0.4 mm 7 mps 744 mmHg 83%
17:00 +11°C° 0.4 mm 6 mps 744 mmHg 84%
18:00 +11°C° 0.4 mm 6 mps 745 mmHg 85%
19:00 +9°C° 0 mm 5 mps 745 mmHg 87%
20:00 +8°C° 0 mm 5 mps 746 mmHg 89%
21:00 +7°C° 0 mm 5 mps 747 mmHg 91%
22:00 +7°C° 0 mm 5 mps 747 mmHg 92%
23:00 +6°C° 0 mm 5 mps 748 mmHg 93%

18 May, Tuesday

Time Temperature Precipitation Wind Pressure Humidity
00:00 +6°C° 0 mm 5 mps 748 mmHg 94%
01:00 +5°C° 0 mm 5 mps 749 mmHg 95%
02:00 +5°C° 0 mm 5 mps 749 mmHg 96%
03:00 +5°C° 0 mm 4 mps 749 mmHg 96%
04:00 +5°C° 0 mm 4 mps 750 mmHg 95%
05:00 +6°C° 0 mm 5 mps 750 mmHg 94%
06:00 +6°C° 0 mm 5 mps 751 mmHg 94%
07:00 +8°C° 0 mm 5 mps 751 mmHg 86%
08:00 +10°C° 0 mm 5 mps 751 mmHg 79%
09:00 +11°C° 0 mm 6 mps 752 mmHg 72%
10:00 +13°C° 0.1 mm 6 mps 751 mmHg 67%
11:00 +14°C° 0.1 mm 6 mps 751 mmHg 62%
12:00 +15°C° 0.1 mm 6 mps 751 mmHg 57%
13:00 +15°C° 0.1 mm 6 mps 751 mmHg 62%
14:00 +14°C° 0.1 mm 6 mps 751 mmHg 66%
15:00 +14°C° 0.1 mm 6 mps 751 mmHg 71%
16:00 +13°C° 0.6 mm 6 mps 751 mmHg 77%
17:00 +11°C° 0.6 mm 6 mps 751 mmHg 82%
18:00 +11°C° 0.6 mm 6 mps 751 mmHg 88%
19:00 +10°C° 0.3 mm 6 mps 751 mmHg 89%
20:00 +9°C° 0.3 mm 6 mps 751 mmHg 90%
21:00 +9°C° 0.3 mm 6 mps 751 mmHg 91%
22:00 +8°C° 0 mm 6 mps 751 mmHg 92%
23:00 +8°C° 0 mm 5 mps 752 mmHg 93%

19 May, Wednesday

Time Temperature Precipitation Wind Pressure Humidity
00:00 +8°C° 0 mm 5 mps 752 mmHg 94%
01:00 +7°C° 0 mm 5 mps 752 mmHg 93%
02:00 +7°C° 0 mm 5 mps 752 mmHg 92%
03:00 +6°C° 0 mm 4 mps 752 mmHg 91%
04:00 +7°C° 0 mm 4 mps 752 mmHg 92%
05:00 +7°C° 0 mm 4 mps 752 mmHg 92%
06:00 +7°C° 0 mm 4 mps 752 mmHg 92%
07:00 +10°C° 0 mm 4 mps 753 mmHg 84%
08:00 +11°C° 0 mm 4 mps 753 mmHg 77%
09:00 +12°C° 0 mm 4 mps 753 mmHg 69%
10:00 +13°C° 0 mm 4 mps 753 mmHg 64%
11:00 +14°C° 0 mm 4 mps 753 mmHg 60%
12:00 +15°C° 0 mm 4 mps 753 mmHg 56%
13:00 +17°C° 0 mm 4 mps 752 mmHg 56%
14:00 +17°C° 0 mm 4 mps 752 mmHg 56%
15:00 +17°C° 0 mm 4 mps 752 mmHg 56%
16:00 +16°C° 0.1 mm 3 mps 752 mmHg 64%
17:00 +14°C° 0.1 mm 3 mps 751 mmHg 72%
18:00 +14°C° 0.1 mm 3 mps 751 mmHg 79%
19:00 +13°C° 0.2 mm 3 mps 751 mmHg 83%
20:00 +12°C° 0.2 mm 4 mps 751 mmHg 87%
21:00 +11°C° 0.2 mm 4 mps 751 mmHg 92%
22:00 +10°C° 0.6 mm 3 mps 751 mmHg 93%
23:00 +10°C° 0.6 mm 2 mps 750 mmHg 95%
Show more